Weather History for Fort Indiantown Gap, PA

Change the Weather History Date:

Monday, January 14, 2013

  Actual Average Record
Temperature  
Mean Temperature 46 °F -  
Max Temperature 52 °F 33 °F 52 °F (2013)
Min Temperature 37 °F 22 °F 12 °F (1999)
Degree Days  
Heating Degree Days 18    
Moisture  
Dew Point 44 °F    
Average Humidity 91    
Maximum Humidity 100    
Minimum Humidity 45    
Precipitation  
Precipitation 0.13 in - - ()
Sea Level Pressure  
Sea Level Pressure 30.06 in    
Wind  
Wind Speed 2 mph (NNW)    
Max Wind Speed 15 mph    
Max Gust Speed 23 mph    
Visibility 4 miles    
Events Fog , Rain    
Averages and records for this station are not official NWS values.
T = Trace of Precipitation, MM = Missing Value Source: NWS Daily Summary

Daily Weather History Graph

Daily Weather History Graph

Search for Another Location

Airport:

Trip Planner

Search our weather history database for the weather conditions in past years. The results will help you decide how hot, cold, wet, or windy it might be!

Date:

Astronomy

Jan. 14, 2013 Rise Set
Actual Time 7:27 AM EST 5:03 PM EST
Civil Twilight 6:57 AM EST 5:33 PM EST
Nautical Twilight 6:24 AM EST 6:07 PM EST
Astronomical Twilight 5:51 AM EST 6:39 PM EST
Moon 8:59 AM EST (1/14) 8:47 PM EST (1/14)
Length of Visible Light 10h 35m
Length of Day
9h 35m
Waxing Crescent, 11% of the Moon is Illuminated
Jan 14
Waxing Crescent
Jan 18
First Quarter
Jan 26
Full
Feb 3
Last Quarter
Feb 10
New

Hourly Weather History & Observations

Time (EST) Temp. Windchill Dew Point Humidity Pressure Visibility Wind Dir Wind Speed Gust Speed Precip Events Conditions
12:06 AM 46.4 °F - 46.4 °F 100% 29.99 in 0.5 mi Calm Calm - N/A Fog Fog
12:40 AM 46.4 °F 44.3 °F 46.4 °F 100% 29.98 in 0.8 mi NE 4.6 mph - N/A   Mist
12:45 AM 46.4 °F - 46.4 °F 100% 29.98 in 0.5 mi Calm Calm - N/A Fog Fog
12:54 AM 46.4 °F - 46.4 °F 100% 29.99 in 0.8 mi Calm Calm - N/A   Mist
12:55 AM 46.2 °F - 46.2 °F 100% 29.99 in 0.8 mi Calm Calm - 0.01 in   Mist
1:12 AM 46.4 °F - 46.4 °F 100% 29.99 in 0.5 mi Calm Calm - N/A Fog Fog
1:26 AM 46.4 °F 45.2 °F 46.4 °F 100% 29.99 in 0.8 mi NNE 3.5 mph - N/A   Mist
1:35 AM 46.4 °F 45.2 °F 46.4 °F 100% 30.00 in 0.5 mi NE 3.5 mph - N/A Fog Fog
1:47 AM 46.4 °F 45.2 °F 46.4 °F 100% 30.00 in 0.5 mi NE 3.5 mph - N/A Fog Light Drizzle
1:55 AM 46.2 °F - 46.2 °F 100% 30.01 in 0.5 mi Calm Calm - 0.00 in Fog Light Drizzle
2:06 AM 46.4 °F - 46.4 °F 100% 30.02 in 0.8 mi Calm Calm - N/A Rain Light Rain
2:14 AM 46.4 °F 44.3 °F 46.4 °F 100% 30.04 in 1.0 mi NW 4.6 mph - N/A Rain Light Rain
2:18 AM 46.4 °F 45.2 °F 46.4 °F 100% 30.04 in 1.2 mi WNW 3.5 mph - N/A Rain Light Rain
2:20 AM 46.4 °F - 46.4 °F 100% 30.04 in 1.5 mi Calm Calm - N/A Rain Light Rain
2:21 AM 46.4 °F - 46.4 °F 100% 30.04 in 1.8 mi Calm Calm - N/A Rain Light Rain
2:22 AM 46.4 °F - 46.4 °F 100% 30.04 in 2.0 mi Calm Calm - N/A Rain Light Rain
2:25 AM 46.4 °F - 46.4 °F 100% 30.04 in 3.0 mi Calm Calm - N/A Rain Light Rain
2:33 AM 46.4 °F - 46.4 °F 100% 30.03 in 4.0 mi Calm Calm - N/A Rain Light Rain
2:35 AM 46.4 °F 45.2 °F 46.4 °F 100% 30.03 in 2.5 mi ESE 3.5 mph - N/A Rain Light Rain
2:36 AM 46.4 °F 45.2 °F 46.4 °F 100% 30.03 in 1.8 mi SE 3.5 mph - N/A Rain Light Rain
2:37 AM 46.4 °F 45.2 °F 46.4 °F 100% 30.03 in 1.5 mi SE 3.5 mph - N/A Rain Light Rain
2:38 AM 46.4 °F - 46.4 °F 100% 30.03 in 1.2 mi Calm Calm - N/A Rain Light Rain
2:40 AM 46.4 °F - 46.4 °F 100% 30.03 in 1.0 mi Calm Calm - N/A Rain Light Rain
2:41 AM 46.4 °F - 46.4 °F 100% 30.03 in 1.0 mi Calm Calm - N/A Rain Light Rain
2:43 AM 46.4 °F - 46.4 °F 100% 30.03 in 0.8 mi Calm Calm - N/A Rain Light Rain
2:47 AM 46.4 °F - 46.4 °F 100% 30.03 in 1.0 mi Calm Calm - N/A Rain Light Rain
2:49 AM 46.4 °F - 46.4 °F 100% 30.03 in 0.8 mi Calm Calm - N/A Rain Light Rain
2:51 AM 46.4 °F - 46.4 °F 100% 30.03 in 1.0 mi Calm Calm - N/A Rain Light Rain
2:55 AM 46.8 °F - 46.8 °F 100% 30.03 in 1.0 mi Calm Calm - 0.04 in Rain Light Rain
2:56 AM 46.4 °F - 46.4 °F 100% 30.02 in 1.0 mi Calm Calm - N/A Rain Light Rain
2:57 AM 46.4 °F - 46.4 °F 100% 30.02 in 0.8 mi Calm Calm - N/A Rain Light Rain
3:04 AM 46.4 °F - 46.4 °F 100% 30.01 in 0.8 mi Calm Calm - N/A Rain Light Rain
3:05 AM 46.4 °F - 46.4 °F 100% 30.01 in 0.8 mi Calm Calm - N/A Rain Light Rain
3:09 AM 46.4 °F - 46.4 °F 100% 30.00 in 0.5 mi Calm Calm - N/A Fog , Rain Light Rain
3:10 AM 46.4 °F - 46.4 °F 100% 29.99 in 0.5 mi Calm Calm - N/A Fog , Rain Light Rain
3:13 AM 46.4 °F 45.2 °F 46.4 °F 100% 29.99 in 0.5 mi NE 3.5 mph - N/A Fog , Rain Light Rain
3:15 AM 46.4 °F 44.3 °F 46.4 °F 100% 29.98 in 0.5 mi ENE 4.6 mph - N/A Fog , Rain Light Rain
3:22 AM 46.4 °F 44.3 °F 46.4 °F 100% 29.96 in 0.8 mi ENE 4.6 mph - N/A Rain Light Rain
3:24 AM 46.4 °F 44.3 °F 46.4 °F 100% 29.96 in 1.0 mi ENE 4.6 mph - N/A Rain Light Rain
3:26 AM 46.4 °F 44.3 °F 46.4 °F 100% 29.96 in 1.2 mi Variable 4.6 mph - N/A Rain Light Rain
3:27 AM 46.4 °F 45.2 °F 46.4 °F 100% 29.96 in 1.8 mi Variable 3.5 mph - N/A Rain Light Rain
3:28 AM 46.4 °F 43.5 °F 46.4 °F 100% 29.95 in 2.0 mi East 5.8 mph - N/A Rain Light Rain
3:29 AM 46.4 °F 43.5 °F 46.4 °F 100% 29.95 in 3.0 mi East 5.8 mph - N/A Rain Light Rain
3:41 AM 46.4 °F 43.5 °F 46.4 °F 100% 29.97 in 7.0 mi NNW 5.8 mph - N/A   Overcast
3:55 AM 47.1 °F - 47.1 °F 100% 30.00 in 7.0 mi WNW 5.8 mph - 0.03 in   Overcast
4:43 AM 48.2 °F - 48.2 °F 100% 29.97 in 10.0 mi Calm Calm - N/A   Overcast
4:55 AM 47.5 °F - 47.5 °F 100% 29.97 in 9.0 mi Calm Calm - N/A   Overcast
5:00 AM 46.4 °F 45.2 °F 46.4 °F 100% 29.98 in 7.0 mi WSW 3.5 mph - N/A   Overcast
5:55 AM 47.5 °F - 47.5 °F 100% 30.00 in 8.0 mi Calm Calm - N/A   Overcast
6:18 AM 46.4 °F - 46.4 °F 100% 30.00 in 2.5 mi Calm Calm - N/A   Overcast
6:20 AM 46.4 °F - 46.4 °F 100% 30.01 in 1.8 mi Calm Calm - N/A   Overcast
6:27 AM 48.2 °F - 48.2 °F 100% 30.02 in 2.0 mi Calm Calm - N/A   Overcast
6:29 AM 48.2 °F - 48.2 °F 100% 30.01 in 3.0 mi Calm Calm - N/A   Overcast
6:36 AM 46.4 °F - 46.4 °F 100% 30.02 in 2.5 mi Calm Calm - N/A   Overcast
6:44 AM 48.2 °F - 48.2 °F 100% 30.04 in 3.0 mi West 4.6 mph - N/A   Overcast
6:55 AM 47.8 °F - 47.8 °F 100% 30.04 in 9.0 mi WSW 5.8 mph - N/A   Overcast
6:59 AM 48.2 °F - 48.2 °F 100% 30.03 in 10.0 mi WSW 5.8 mph - N/A   Overcast
7:35 AM 48.2 °F - 48.2 °F 100% 30.07 in 10.0 mi SSW 5.8 mph - N/A   Overcast
7:36 AM 48.2 °F - 48.2 °F 100% 30.07 in 10.0 mi SSW 5.8 mph - N/A   Overcast
7:43 AM 48.2 °F - 48.2 °F 100% 30.07 in 10.0 mi SSW 5.8 mph - N/A   Overcast
7:55 AM 49.3 °F - 49.3 °F 100% 30.09 in 10.0 mi Variable 3.5 mph - N/A   Overcast
8:55 AM 51.6 °F - 51.6 °F 100% 30.10 in 10.0 mi Variable 4.6 mph - N/A   Overcast
9:55 AM 52.9 °F - 45.9 °F 77% 30.15 in 10.0 mi West 9.2 mph 20.7 mph N/A   Overcast
10:55 AM 50.5 °F - 43.3 °F 76% 30.19 in 10.0 mi West 15.0 mph 23.0 mph N/A   Overcast
11:55 AM 49.5 °F - 37.4 °F 63% 30.18 in 10.0 mi NNW 8.1 mph - N/A   Overcast
12:55 PM 50.0 °F - 37.0 °F 61% 30.17 in 10.0 mi North 10.4 mph - N/A   Overcast
1:55 PM 49.3 °F - 31.6 °F 51% 30.18 in 10.0 mi Variable 6.9 mph - N/A   Partly Cloudy
2:55 PM 49.3 °F - 32.0 °F 51% 30.20 in 10.0 mi North 9.2 mph - N/A   Mostly Cloudy
3:55 PM 49.1 °F - 31.1 °F 50% 30.19 in 10.0 mi Variable 3.5 mph - N/A   Overcast
4:55 PM 48.0 °F - 27.7 °F 45% 30.19 in 10.0 mi Calm Calm - N/A   Overcast
5:55 PM 47.3 °F - 29.1 °F 49% 30.23 in 10.0 mi NW 9.2 mph - N/A   Overcast
6:55 PM 46.4 °F 42.9 °F 27.7 °F 48% 30.28 in 10.0 mi WNW 6.9 mph - N/A   Overcast
7:28 PM 46.4 °F 41.5 °F 28.4 °F 50% 30.28 in 10.0 mi NW 10.4 mph - N/A   Light Drizzle
7:55 PM 45.0 °F 38.9 °F 28.4 °F 52% 30.28 in 10.0 mi NW 12.7 mph - 0.00 in   Light Drizzle
8:55 PM 43.0 °F 38.2 °F 30.2 °F 61% 30.30 in 10.0 mi NW 8.1 mph - 0.01 in   Light Drizzle
9:31 PM 42.8 °F 41.1 °F 30.2 °F 61% 30.28 in 10.0 mi Variable 3.5 mph - N/A   Mostly Cloudy
9:55 PM 42.4 °F - 29.5 °F 60% 30.30 in 10.0 mi Calm Calm - 0.00 in   Overcast
10:40 PM 42.8 °F 40.1 °F 28.4 °F 57% 30.30 in 10.0 mi NNW 4.6 mph - N/A   Light Drizzle
10:55 PM 41.5 °F 37.8 °F 30.7 °F 65% 30.30 in 10.0 mi NNW 5.8 mph - 0.00 in Rain Light Rain
11:55 PM 37.6 °F - 37.4 °F 99% 30.27 in 10.0 mi Calm Calm - 0.04 in Rain Light Rain